📊 Raw Sensor Data
Showing records 37451 to 37475 of 84,913 total
| ID | Distance (ft) | Battery V | Battery A | Int Temp (°F) | Int Humid (%) | Ext Temp (°F) | Solar V | RSSI | SNR | Time Stamp |
|---|---|---|---|---|---|---|---|---|---|---|
| 47475 | 15.0 | 3.95 | 10 | 57 | 43 | 58 | 4.50 | -70 | 8 | 07/27/2025 07:00 AM |
| 47474 | 15.0 | 3.93 | 0 | 57 | 43 | 57 | 4.50 | -71 | 8 | 07/27/2025 06:45 AM |
| 47473 | 15.0 | 3.91 | -5 | 56 | 44 | 57 | 4.50 | -70 | 8 | 07/27/2025 06:30 AM |
| 47472 | 15.0 | 3.84 | -10 | 56 | 44 | 57 | 4.10 | -70 | 8 | 07/27/2025 06:15 AM |
| 47471 | 14.9 | 3.92 | -5 | 56 | 44 | 56 | 1.90 | -69 | 8 | 07/27/2025 06:00 AM |
| 47470 | 15.0 | 3.92 | -5 | 56 | 44 | 56 | 0.30 | -71 | 7 | 07/27/2025 05:45 AM |
| 47469 | 15.0 | 3.92 | -5 | 57 | 44 | 57 | 0.00 | -69 | 8 | 07/27/2025 05:30 AM |
| 47468 | 15.1 | 3.92 | -5 | 57 | 44 | 57 | 0.00 | -71 | 8 | 07/27/2025 05:15 AM |
| 47467 | 14.9 | 3.92 | -5 | 57 | 44 | 57 | 0.00 | -70 | 8 | 07/27/2025 05:00 AM |
| 47466 | 14.9 | 3.92 | -5 | 57 | 44 | 57 | 0.00 | -68 | 8 | 07/27/2025 04:45 AM |
| 47465 | 14.9 | 3.86 | -5 | 57 | 44 | 57 | 0.00 | -69 | 8 | 07/27/2025 04:30 AM |
| 47464 | 14.9 | 3.87 | -5 | 57 | 44 | 58 | 0.00 | -70 | 8 | 07/27/2025 04:15 AM |
| 47463 | 14.9 | 3.85 | -5 | 57 | 44 | 58 | 0.10 | -70 | 8 | 07/27/2025 04:00 AM |
| 47462 | 14.9 | 3.85 | -5 | 56 | 44 | 57 | 0.00 | -70 | 8 | 07/27/2025 03:45 AM |
| 47461 | 14.9 | 3.86 | -5 | 56 | 44 | 57 | 0.00 | -70 | 8 | 07/27/2025 03:30 AM |
| 47460 | 14.9 | 3.86 | -5 | 56 | 44 | 57 | 0.00 | -69 | 8 | 07/27/2025 03:15 AM |
| 47459 | 14.9 | 3.86 | -5 | 56 | 44 | 57 | 0.00 | -69 | 8 | 07/27/2025 03:00 AM |
| 47458 | 15.0 | 3.87 | -5 | 56 | 44 | 57 | 0.00 | -69 | 8 | 07/27/2025 02:45 AM |
| 47457 | 14.9 | 3.86 | -5 | 56 | 44 | 57 | 0.00 | -69 | 8 | 07/27/2025 02:30 AM |
| 47456 | 14.9 | 3.87 | -5 | 56 | 44 | 57 | 0.00 | -69 | 8 | 07/27/2025 02:15 AM |
| 47455 | 14.9 | 3.87 | -5 | 56 | 44 | 57 | 0.00 | -69 | 8 | 07/27/2025 02:00 AM |
| 47454 | 14.9 | 3.87 | -5 | 56 | 44 | 57 | 0.00 | -71 | 8 | 07/27/2025 01:45 AM |
| 47453 | 14.9 | 3.93 | -5 | 56 | 44 | 57 | 0.00 | -71 | 7 | 07/27/2025 01:30 AM |
| 47452 | 14.9 | 3.88 | -5 | 56 | 45 | 57 | 0.00 | -71 | 8 | 07/27/2025 01:15 AM |
| 47451 | 14.9 | 3.93 | -5 | 56 | 45 | 57 | 0.00 | -70 | 8 | 07/27/2025 01:00 AM |